TimeCDT,TemperatureF,Dew PointF,Humidity,Sea Level PressureIn,VisibilityMPH,Wind Direction,Wind SpeedMPH,Gust SpeedMPH,PrecipitationIn,Events,Conditions,WindDirDegrees,DateUTC
12:53 AM,57.0,50.0,77,30.04,10.0,South,3.5,-,N/A,,Clear,170,2013-10-11 05:53:00
1:53 AM,51.1,48.0,89,30.03,9.0,Calm,Calm,-,N/A,,Clear,0,2013-10-11 06:53:00
2:53 AM,48.0,46.9,96,30.03,4.0,Calm,Calm,-,N/A,,Clear,0,2013-10-11 07:53:00
3:35 AM,46.4,46.4,100,30.04,2.0,Calm,Calm,-,N/A,,Clear,0,2013-10-11 08:35:00
3:53 AM,48.0,46.9,96,30.04,2.5,Calm,Calm,-,N/A,,Clear,0,2013-10-11 08:53:00
4:01 AM,48.2,46.4,93,30.04,3.0,Calm,Calm,-,N/A,,Clear,0,2013-10-11 09:01:00
4:08 AM,46.4,46.4,100,30.04,2.5,Calm,Calm,-,N/A,,Clear,0,2013-10-11 09:08:00
4:53 AM,46.9,45.0,93,30.04,2.0,Calm,Calm,-,N/A,,Clear,0,2013-10-11 09:53:00
5:12 AM,46.4,44.6,93,30.04,1.8,Calm,Calm,-,N/A,,Partly Cloudy,0,2013-10-11 10:12:00
5:28 AM,46.4,44.6,93,30.04,2.0,Calm,Calm,-,N/A,,Partly Cloudy,0,2013-10-11 10:28:00
5:53 AM,46.0,45.0,96,30.04,5.0,Calm,Calm,-,N/A,,Partly Cloudy,0,2013-10-11 10:53:00
6:53 AM,46.9,46.0,97,30.04,4.0,Calm,Calm,-,N/A,,Partly Cloudy,0,2013-10-11 11:53:00
7:53 AM,48.9,48.0,97,30.05,4.0,Calm,Calm,-,N/A,,Mostly Cloudy,0,2013-10-11 12:53:00
8:53 AM,57.9,53.1,84,30.05,6.0,South,6.9,-,N/A,,Haze,170,2013-10-11 13:53:00
9:53 AM,62.1,55.0,78,30.04,8.0,South,8.1,-,N/A,,Mostly Cloudy,180,2013-10-11 14:53:00
10:53 AM,64.0,55.9,75,30.03,10.0,South,6.9,-,N/A,,Mostly Cloudy,190,2013-10-11 15:53:00
11:53 AM,69.1,57.9,68,30.01,10.0,South,9.2,-,N/A,,Scattered Clouds,170,2013-10-11 16:53:00
12:53 PM,71.1,57.0,61,29.99,10.0,South,10.4,-,N/A,,Scattered Clouds,180,2013-10-11 17:53:00
1:53 PM,72.0,57.0,59,29.96,10.0,SSE,21.9,25.3,N/A,,Mostly Cloudy,160,2013-10-11 18:53:00
2:53 PM,73.0,55.9,55,29.94,10.0,SSE,16.1,27.6,N/A,,Scattered Clouds,160,2013-10-11 19:53:00
3:53 PM,73.9,55.0,52,29.91,10.0,SSE,18.4,25.3,N/A,,Partly Cloudy,150,2013-10-11 20:53:00
4:53 PM,73.9,55.0,52,29.91,10.0,SSE,20.7,26.5,N/A,,Partly Cloudy,160,2013-10-11 21:53:00
5:53 PM,72.0,55.0,55,29.91,10.0,SSE,11.5,-,N/A,,Partly Cloudy,150,2013-10-11 22:53:00
6:53 PM,69.1,54.0,58,29.92,10.0,SE,10.4,-,N/A,,Clear,140,2013-10-11 23:53:00
7:53 PM,64.9,53.1,65,29.93,10.0,SE,12.7,-,N/A,,Clear,130,2013-10-12 00:53:00
8:53 PM,63.0,52.0,67,29.93,10.0,SE,11.5,-,N/A,,Clear,140,2013-10-12 01:53:00
9:53 PM,62.1,51.1,67,29.93,10.0,SE,9.2,-,N/A,,Clear,140,2013-10-12 02:53:00
10:53 PM,62.1,51.1,67,29.92,10.0,SE,12.7,-,N/A,,Partly Cloudy,140,2013-10-12 03:53:00
11:53 PM,63.0,51.1,65,29.91,10.0,South,16.1,-,N/A,,Clear,170,2013-10-12 04:53:00